Skip Page Navigation
NASA JPL Caltech
NASA Logo - Jet Propulsion Laboratory + View the NASA Portal
+ Near-Earth Object (NEO) Program
Search JPL
JPL Home Earth Solar System Stars & Galaxies Technology
JPL Solar System Dynamics
BODIES ORBITS EPHEMERIDES TOOLS PHYSICAL DATA DISCOVERY FAQ SITE MAP
JPL Small-Body Database Browser
Search: [ help ]  
(2010 TY53)
Classification: TransNeptunian Object          SPK-ID: 3548524
Ephemeris | Orbit Diagram | Orbital Elements | Physical Parameters ]

[ show orbit diagram ]
Orbital Elements at Epoch 2456800.5 (2014-May-23.0) TDB
Reference: JPL 4 (heliocentric ecliptic J2000)
 Element Value Uncertainty (1-sigma)   Units 
e .4616655837974715 4.9018e-05  
a 39.1046575704169 0.0060387 AU
q 21.05138300397017 0.002732 AU
i 22.45370581244795 4.2866e-05 deg
node 111.4726541747178 0.00058301 deg
peri 2.95802131917882 0.011767 deg
M 318.0726656519259 0.01154 deg
tp 2467202.956507794540
(2042-Nov-14.45650779)
0.68812 JED
period 89318.44585483528
244.54
20.689
0.05664
d
yr
n .004030522436374337 9.3361e-07 deg/d
Q 57.15793213686364 0.0088265 AU
  Orbit Determination Parameters
   # obs. used (total)      39  
   data-arc span      3307 days (9.05 yr)  
   first obs. used      2004-10-07  
   last obs. used      2013-10-27  
   planetary ephem.      DE431  
   SB-pert. ephem.      SB431-BIG16  
   condition code      3  
   fit RMS      .65246  
   data source      ORB  
   producer      Otto Matic  
   solution date      2014-Jun-13 13:41:59  

Additional Information
 Earth MOID = 20.0678 AU 
 T_jup = 4.628 
[ show covariance matrix ]

Ephemeris | Orbit Diagram | Orbital Elements | Physical Parameters ]

Physical Parameter Table
Parameter Symbol Value Units Sigma Reference Notes
absolute magnitude H 5.4 mag n/a E2013U59  
Ephemeris | Orbit Diagram | Orbital Elements | Physical Parameters ]
ABOUT SSD CREDITS/AWARDS PRIVACY/COPYRIGHT GLOSSARY LINKS
FirstGov 2014-Jul-30 11:09 UT
(server date/time)  
NASA Home Page
Site Manager:   Donald K. Yeomans
Webmaster  Alan B. Chamberlin